Latest Weather Observations for Mount Baw Baw

IDV60801

Issued at 3:02 pm EDT Saturday 7 March 2015 (issued every 30 minutes, with the page automatically refreshed every 10 minutes)

About weather observations | Map of weather stations | Latest weather observations for VIC | Other Formats
Station Details ID: 085291 Name: MOUNT BAW BAW Lat: -37.84 Lon: 146.27 Height: 1561.0 m
Data from the previous 72 hours. | See also: Recent months at Mount Baw Baw
Date/Time
EDT
Temp
°C
App
Temp
°C
Dew
Point
Rel
Hum
%
Delta-T
°C
Wind Press
QNH
hPa
Press
MSL
hPa
Rain
since 9 am
mm
Dir
 
Spd
km/h
Gust
km/h
Spd
kts
Gust
kts
07/03:00pm 8.4 4.4 8.3 99 0.1 WSW 19 28 - 15 - - 0.2
07/02:30pm 8.1 4.4 8.0 99 0.1 WSW 17 24 - 13 - - 0.2
07/02:00pm 8.0 3.9 7.9 99 0.1 WSW 19 30 - 16 - - 0.2
07/01:30pm 7.8 4.0 7.7 99 0.1 SW 17 30 - 16 - - 0.2
07/01:00pm 7.9 4.2 7.8 99 0.1 WSW 17 28 - 15 - - 0.2
07/12:30pm 7.3 3.0 7.2 99 0.1 WSW 19 33 - 18 - - 0.2
07/12:00pm 7.5 3.3 7.4 99 0.1 WSW 19 28 - 15 - - 0.2
07/11:30am 7.4 3.0 7.3 99 0.1 WSW 20 32 - 17 - - 0.0
07/11:00am 7.3 2.9 7.2 99 0.1 WSW 20 30 - 16 - - 0.0
07/10:30am 6.7 2.7 6.6 99 0.1 WSW 17 26 - 14 - - 0.0
07/10:00am 6.4 2.7 6.3 99 0.0 WSW 15 22 - 12 - - 0.0
07/09:30am 5.8 1.6 5.7 99 0.0 WSW 17 24 - 13 - - 0.0
07/09:00am 5.7 1.5 5.6 99 0.0 WSW 17 28 - 15 - - 10.4
07/08:30am 5.2 1.2 5.1 99 0.0 WSW 15 20 - 11 - - 10.4
07/08:00am 5.2 0.9 5.1 99 0.0 WSW 17 24 - 13 - - 10.4
07/07:30am 5.1 0.4 5.0 99 0.0 SW 19 28 - 15 - - 10.4
07/07:00am 5.4 0.5 5.3 99 0.0 SW 20 30 - 16 - - 10.4
07/06:30am 5.4 0.7 5.3 99 0.0 SW 19 30 - 16 - - 10.4
07/06:00am 5.4 0.5 5.3 99 0.0 SW 20 28 - 15 - - 10.4
07/05:30am 5.7 1.1 5.6 99 0.0 SW 19 30 - 16 - - 10.4
07/05:00am 6.0 1.3 5.9 99 0.0 SW 20 30 - 16 - - 10.4
07/04:30am 6.1 1.4 6.0 99 0.0 SW 20 32 - 17 - - 10.4
07/04:00am 6.4 1.8 6.3 99 0.0 SW 20 32 - 17 - - 10.4
07/03:30am 6.4 1.0 6.3 99 0.0 SW 24 32 - 17 - - 10.4
07/03:00am 6.8 1.9 6.7 99 0.1 SW 22 33 - 18 - - 10.4
07/02:30am 6.6 1.2 6.5 99 0.0 SW 24 35 - 19 - - 10.4
07/02:00am 6.5 1.9 6.4 99 0.0 SW 20 30 - 16 - - 10.4
07/01:30am 6.4 1.0 6.3 99 0.0 SW 24 32 - 17 - - 10.2
07/01:00am 6.2 0.0 6.1 99 0.0 SW 28 41 - 22 - - 10.2
07/12:30am 6.3 0.5 6.2 99 0.0 SW 26 39 - 21 - - 10.2
07/12:00am 6.3 -0.3 6.2 99 0.0 SW 30 43 - 23 - - 10.2
 
Date/Time
EDT
Temp
°C
App
Temp
°C
Dew
Point
Rel
Hum
%
Delta-T
°C
Wind Press
QNH
hPa
Press
MSL
hPa
Rain
since 9 am
mm
Dir
 
Spd
km/h
Gust
km/h
Spd
kts
Gust
kts
06/11:30pm 6.4 0.2 6.3 99 0.0 SW 28 43 - 23 - - 10.2
06/11:00pm 6.4 0.2 6.3 99 0.0 SW 28 39 - 21 - - 10.0
06/10:30pm 6.3 0.5 6.2 99 0.0 SW 26 35 - 19 - - 10.0
06/10:00pm 6.4 -0.1 6.3 99 0.0 SW 30 43 - 23 - - 10.0
06/09:30pm 6.5 0.0 6.4 99 0.0 SW 30 43 - 23 - - 9.8
06/09:00pm 6.6 0.5 6.5 99 0.0 SW 28 44 - 24 - - 9.8
06/08:30pm 6.4 0.2 6.3 99 0.0 WSW 28 41 - 22 - - 9.2
06/08:00pm 6.4 0.2 6.3 99 0.0 WSW 28 43 - 23 - - 9.2
06/07:50pm 6.5 0.0 6.4 99 0.0 WSW 30 48 - 26 - - 9.2
06/07:30pm 6.6 0.1 6.5 99 0.0 WSW 30 43 - 23 - - 9.2
06/07:11pm 6.8 0.3 6.7 99 0.1 SW 30 48 - 26 - - 9.2
06/07:00pm 6.8 0.7 6.7 99 0.1 WSW 28 44 - 24 - - 8.8
06/06:30pm 6.9 0.1 6.8 99 0.1 WSW 32 52 - 28 - - 8.6
06/06:00pm 7.1 0.3 7.0 99 0.1 SW 32 50 - 27 - - 8.2
06/05:33pm 6.8 -0.6 6.7 99 0.1 WSW 35 54 - 29 - - 8.2
06/05:30pm 6.9 -0.9 6.8 99 0.1 WSW 37 54 - 29 - - 8.2
06/05:02pm 7.0 -0.7 6.9 99 0.1 SW 37 56 - 30 - - 7.6
06/05:00pm 6.9 -1.2 6.8 99 0.1 WSW 39 56 - 30 - - 7.6
06/04:42pm 6.8 -0.2 6.7 99 0.1 WSW 33 52 - 28 - - 7.6
06/04:30pm 7.4 0.5 7.3 99 0.1 WSW 33 50 - 27 - - 6.8
06/04:00pm 7.1 -1.0 7.0 99 0.1 SW 39 57 - 31 - - 6.0
06/03:31pm 7.5 1.6 7.4 99 0.1 WSW 28 46 - 25 - - 4.4
06/03:30pm 7.5 1.6 7.4 99 0.1 WSW 28 44 - 24 - - 4.4
06/03:02pm 7.1 0.3 7.0 99 0.1 WSW 32 56 - 30 - - 3.2
06/03:00pm 7.1 0.3 7.0 99 0.1 WSW 32 48 - 26 - - 3.2
06/02:33pm 7.2 -0.1 7.1 99 0.1 WSW 35 57 - 31 - - 3.0
06/02:30pm 7.1 0.1 7.0 99 0.1 WSW 33 46 - 25 - - 3.0
06/02:00pm 6.8 -1.0 6.7 99 0.1 WSW 37 56 - 30 - - 3.0
06/01:30pm 7.0 -0.7 6.9 99 0.1 SW 37 57 - 31 - - 2.6
06/01:00pm 6.9 -0.9 6.8 99 0.1 WSW 37 61 - 33 - - 2.2
06/12:33pm 6.8 -1.4 6.7 99 0.1 WSW 39 59 - 32 - - 1.8
06/12:30pm 6.7 -1.5 6.6 99 0.1 WSW 39 54 - 29 - - 1.8
06/12:00pm 6.4 -1.1 6.3 99 0.0 WSW 35 56 - 30 - - 1.6
06/11:30am 6.2 -1.7 6.1 99 0.0 SW 37 57 - 31 - - 1.2
06/11:00am 6.0 -1.6 5.9 99 0.0 SW 35 56 - 30 - - 1.0
06/10:30am 5.6 -2.8 5.5 99 0.0 SW 39 59 - 32 - - 0.6
06/10:00am 5.4 -2.7 5.3 99 0.0 SW 37 57 - 31 - - 0.2
06/09:30am 5.2 -3.3 5.1 99 0.0 SW 39 63 - 34 - - 0.0
06/09:00am 4.8 -3.8 4.7 99 0.0 SW 39 63 - 34 - - 2.4
06/08:30am 4.5 -4.9 4.4 99 0.0 SW 43 67 - 36 - - 2.2
06/08:00am 4.0 -5.1 3.9 99 0.0 SW 41 61 - 33 - - 2.2
06/07:30am 3.6 -5.2 3.5 99 0.0 SW 39 63 - 34 - - 2.0
06/07:00am 3.5 -5.7 3.4 99 0.0 SW 41 65 - 35 - - 1.8
06/06:30am 3.0 -5.2 2.9 99 0.0 SW 35 59 - 32 - - 1.8
06/06:00am 2.9 -5.3 2.8 99 0.0 SW 35 67 - 36 - - 1.6
06/05:30am 2.8 -5.8 2.7 99 0.0 SW 37 63 - 34 - - 1.6
06/05:09am 2.5 -6.1 2.4 99 0.0 SW 37 80 - 43 - - 1.6
06/05:00am 2.4 -5.3 2.3 99 0.0 SW 32 52 - 28 - - 1.6
06/04:30am 2.2 -6.1 2.1 99 0.0 SW 35 59 - 32 - - 1.6
06/04:00am 2.2 -6.5 2.1 99 0.0 SW 37 61 - 33 - - 1.6
06/03:30am 1.8 -6.6 1.7 99 0.0 SW 35 57 - 31 - - 1.6
06/03:00am 1.6 -6.4 1.5 99 0.0 SW 33 56 - 30 - - 1.6
06/02:30am 1.2 -6.9 1.1 99 0.0 SW 33 52 - 28 - - 1.6
06/02:01am 1.3 -6.6 1.2 99 0.0 SW 32 52 - 28 - - 1.6
06/02:00am 1.3 -6.6 1.2 99 0.0 SW 32 44 - 24 - - 1.6
06/01:30am 1.5 -6.3 1.4 99 0.0 SW 32 54 - 29 - - 1.6
06/01:03am 1.5 -6.3 1.4 99 0.0 SW 32 52 - 28 - - 1.6
06/01:00am 1.4 -6.1 1.3 99 0.0 SW 30 44 - 24 - - 1.6
06/12:35am 1.2 -6.3 1.1 99 0.0 SW 30 50 - 27 - - 1.6
06/12:30am 1.2 -6.7 1.1 99 0.0 SW 32 46 - 25 - - 1.6
06/12:00am 1.2 -6.9 1.1 99 0.0 WSW 33 57 - 31 - - 1.6
 
Date/Time
EDT
Temp
°C
App
Temp
°C
Dew
Point
Rel
Hum
%
Delta-T
°C
Wind Press
QNH
hPa
Press
MSL
hPa
Rain
since 9 am
mm
Dir
 
Spd
km/h
Gust
km/h
Spd
kts
Gust
kts
05/11:30pm 1.3 -6.8 1.2 99 0.0 WSW 33 52 - 28 - - 1.6
05/11:00pm 1.6 -6.2 1.5 99 0.0 SW 32 54 - 29 - - 1.6
05/10:32pm 1.6 -6.2 1.5 99 0.0 WSW 32 50 - 27 - - 1.6
05/10:30pm 1.8 -6.0 1.7 99 0.0 SW 32 48 - 26 - - 1.6
05/10:00pm 1.9 -5.9 1.8 99 0.0 SW 32 52 - 28 - - 1.6
05/09:30pm 2.0 -5.4 1.9 99 0.0 SW 30 52 - 28 - - 1.6
05/09:25pm 2.0 -5.4 1.9 99 0.0 SW 30 52 - 28 - - 1.6
05/09:00pm 1.8 -5.2 1.7 99 0.0 SW 28 43 - 23 - - 1.6
05/08:30pm 1.9 -4.7 1.8 99 0.0 SW 26 37 - 20 - - 1.6
05/08:00pm 2.3 -4.3 2.2 99 0.0 SW 26 37 - 20 - - 1.6
05/07:30pm 2.4 -3.8 2.3 99 0.0 SW 24 37 - 20 - - 1.6
05/07:00pm 2.3 -3.9 2.2 99 0.0 SW 24 41 - 22 - - 1.6
05/06:30pm 2.0 -4.6 1.9 99 0.0 SW 26 39 - 21 - - 1.6
05/06:00pm 2.2 -4.8 2.1 99 0.0 SW 28 43 - 23 - - 1.6
05/05:30pm 2.9 -4.3 2.8 99 0.0 SW 30 44 - 24 - - 1.6
05/05:00pm 2.3 -5.0 2.2 99 0.0 SW 30 52 - 28 - - 1.6
05/04:49pm 2.5 -4.8 2.4 99 0.0 SW 30 48 - 26 - - 1.6
05/04:30pm 2.4 -4.5 2.3 99 0.0 SW 28 44 - 24 - - 1.6
05/04:13pm 3.0 -3.8 2.9 99 0.0 SW 28 46 - 25 - - 1.6
05/04:00pm 2.6 -5.1 2.5 99 0.0 SW 32 46 - 25 - - 1.6
05/03:30pm 3.0 -4.2 2.9 99 0.0 SW 30 48 - 26 - - 1.6
05/03:24pm 2.7 -4.2 2.6 99 0.0 SW 28 48 - 26 - - 1.6
05/03:00pm 2.1 -4.5 2.0 99 0.0 SW 26 37 - 20 - - 1.6
05/02:30pm 2.0 -4.2 1.9 99 0.0 SW 24 41 - 22 - - 1.6
05/02:00pm 1.9 -6.1 1.8 99 0.0 SW 33 56 - 30 - - 1.6
05/01:30pm 1.8 -5.6 1.7 99 0.0 SW 30 57 - 31 - - 1.6
05/01:00pm 1.1 -6.8 1.0 99 0.0 SW 32 50 - 27 - - 1.6
05/12:30pm 0.8 -7.2 0.7 99 0.0 SW 32 54 - 29 - - 1.6
05/12:09pm 0.5 -7.1 0.4 99 0.0 SW 30 50 - 27 - - 1.4
05/12:00pm 0.3 -7.4 0.2 99 0.0 SW 30 44 - 24 - - 1.4
05/11:31am 0.0 -8.1 -0.1 99 0.0 SW 32 52 - 28 - - 1.4
05/11:30am 0.0 -7.7 -0.1 99 0.0 SW 30 46 - 25 - - 1.4
05/11:00am -0.1 -8.8 -0.2 99 0.0 SW 35 61 - 33 - - 1.4
05/10:30am -0.1 -7.8 -0.2 99 0.0 SW 30 54 - 29 - - 0.8
05/10:02am -0.3 -8.6 -0.4 99 0.0 SW 33 52 - 28 - - 0.4
05/10:00am -0.3 -8.6 -0.4 99 0.0 SW 33 50 - 27 - - 0.4
05/09:30am -0.2 -9.3 -0.3 99 0.0 SW 37 65 - 35 - - 0.2
05/09:02am -0.1 -8.4 -0.2 99 0.0 SW 33 52 - 28 - - 0.0
05/09:00am -0.1 -8.4 -0.2 99 0.0 SW 33 48 - 26 - - 9.4
05/08:30am -0.1 -8.8 -0.2 99 0.0 SW 35 57 - 31 - - 9.4
05/08:00am -0.2 -8.9 -0.3 99 0.0 SW 35 63 - 34 - - 9.4
05/07:30am -0.2 -8.9 -0.3 99 0.0 SW 35 57 - 31 - - 9.4
05/07:00am 0.1 -8.9 0.0 99 0.0 SW 37 61 - 33 - - 9.4
05/06:30am 0.7 -9.0 0.6 99 0.0 SW 41 63 - 34 - - 9.4
05/06:00am 1.0 -9.6 0.9 99 0.0 SW 46 76 - 41 - - 9.4
05/05:30am 1.3 -8.7 1.2 99 0.0 SW 43 70 - 38 - - 9.2
05/05:00am 2.1 -8.3 2.0 99 0.0 SW 46 91 - 49 - - 8.6
05/04:54am 2.2 -7.6 2.1 99 0.0 SW 43 91 - 49 - - 7.8
05/04:30am 4.1 -5.4 4.0 99 0.0 WSW 43 67 - 36 - - 3.4
05/04:00am 4.7 -5.2 4.6 99 0.0 WSW 46 76 - 41 - - 2.8
05/03:30am 5.4 -2.7 5.3 99 0.0 WSW 37 61 - 33 - - 0.4
05/03:00am 5.3 -1.9 5.2 99 0.0 WSW 32 50 - 27 - - 0.0
05/02:39am 5.2 -1.2 5.1 99 0.0 WSW 28 54 - 29 - - 0.0
05/02:30am 5.3 -0.7 5.2 99 0.0 WSW 26 48 - 26 - - 0.0
05/02:00am 5.7 -0.6 5.6 99 0.0 WSW 28 46 - 25 - - 0.0
05/01:39am 5.8 -0.5 5.7 99 0.0 WSW 28 48 - 26 - - 0.0
05/01:30am 5.9 0.0 5.8 99 0.0 WSW 26 41 - 22 - - 0.0
05/01:00am 6.3 0.9 6.2 99 0.0 WSW 24 39 - 21 - - 0.0
05/12:30am 6.5 1.5 6.4 99 0.0 WSW 22 35 - 19 - - 0.0
05/12:00am 6.8 2.2 6.7 99 0.1 WSW 20 35 - 19 - - 0.0
 
Date/Time
EDT
Temp
°C
App
Temp
°C
Dew
Point
Rel
Hum
%
Delta-T
°C
Wind Press
QNH
hPa
Press
MSL
hPa
Rain
since 9 am
mm
Dir
 
Spd
km/h
Gust
km/h
Spd
kts
Gust
kts
04/11:30pm 6.9 2.4 6.8 99 0.1 WSW 20 37 - 20 - - 0.0
04/11:00pm 7.1 2.6 7.0 99 0.1 WSW 20 33 - 18 - - 0.0
04/10:30pm 7.1 2.6 6.8 98 0.2 WSW 20 28 - 15 - - 0.0
04/10:00pm 7.5 3.2 6.8 95 0.4 WSW 19 32 - 17 - - 0.0
04/09:30pm 7.8 4.2 6.6 92 0.6 WNW 15 28 - 15 - - 0.0
04/09:00pm 7.8 4.5 6.6 92 0.6 WNW 13 22 - 12 - - 0.0
04/08:30pm 8.2 4.6 6.7 90 0.8 W 15 24 - 13 - - 0.0
04/08:00pm 9.1 6.2 6.5 84 1.3 WSW 11 20 - 11 - - 0.0
04/07:30pm 10.0 6.7 6.5 79 1.8 W 13 22 - 12 - - 0.0
04/07:00pm 10.7 7.5 6.8 77 2.0 W 13 20 - 11 - - 0.0
04/06:30pm 11.4 8.3 7.3 76 2.2 WSW 13 24 - 13 - - 0.0
04/06:00pm 12.0 8.1 7.3 73 2.5 WSW 17 28 - 15 - - 0.0
04/05:30pm 13.5 9.9 6.8 64 3.5 WSW 15 22 - 12 - - 0.0
04/05:00pm 13.6 9.6 6.7 63 3.6 WSW 17 26 - 14 - - 0.0
04/04:30pm 14.4 10.3 4.4 51 5.0 W 15 26 - 14 - - 0.0
04/04:00pm 13.9 9.5 4.8 54 4.6 WSW 17 26 - 14 - - 0.0
04/03:30pm 13.9 9.7 5.8 58 4.2 W 17 28 - 15 - - 0.0

Other Formats:

Comma delimited format used in spreadsheet applications
http://www.bom.gov.au/fwo/IDV60801/IDV60801.95901.axf

JavaScript Object Notation format (JSON) in row-major order
http://www.bom.gov.au/fwo/IDV60801/IDV60801.95901.json